Хамхын

Северная Корея     39°54′59″N   127°32′18″E
темп.,
°C
ветер,
м/с
пор.,
м/с
влажн.,
%
обл.,
%
осадки,
мм/ч
давл.,
гПа
погр.,
м
18 мая, вт
вт1800:00+12ссз227898 0.0 101012
03:00+12ссз2273100 0.0 100919
06:00+12ссз2264100 0.0 100921
09:00+19юв104713 0.0 1010270
12:00+23ююв32470 0.0 1009628
15:00+21ююв44555 0.0 1008436
18:00+19юв335611 0.0 1008308
21:00+14ссз11705 0.0 101011
19 мая, ср
ср1900:00+13ссз22740 0.0 101011
03:00+12ссз32570 0.0 100922
06:00+12ссз32580 0.0 101024
09:00+22з12400 0.0 1010355
12:00+28з57290 0.0 10081650
15:00+29з78300 0.0 10072067
18:00+25з59430 0.0 1007226
21:00+17сз33590 0.0 101024
20 мая, чт
чт2000:00+15ссз3354100 0.0 101135
03:00+15сз2247100 0.0 101121
06:00+15ссз3348100 0.0 101028
09:00+21ююв2143100 0.0 1011231
12:00+23в113897 0.0 1010423
15:00+24ю4342100 0.0 1009615
18:00+20ююз2260100 0.0 100985
21:00+17св3261100 0.0 100931
21 мая, пт
пт2100:00+16сз1163100 0.0 100913
03:00+14ю3473100 0.1 100894
06:00+13сз2393100 6.7 1008104
09:00+14ссз2382100 8.8 1008210
12:00+14зсз2282100 0.3 100886
15:00+15сз1274100 0.4 1007179
18:00+14сз2276100 0.0 100723
21:00+14сз1173100 0.0 100811
22 мая, сб
сб2200:00+13сз1178100 0.0 100710
03:00+13сз117685 0.0 100611
06:00+13ссз327717 0.0 100633
09:00+21зсз12525 0.0 1005441
12:00+27ююв33385 0.0 10051334
15:00+20ссв226989 0.1 100752
18:00+24ю12542 0.0 1006283
21:00+18св11694 0.0 100911